Overview Statistics Trail Chart Weather Telemetry Raw packets
 

This is the latest recevied weather packets stored in our database for station/object K9MWD. If no packets are shown the sender has not sent any weather packets the latest 10 day(s).

<< 105 106 107 108 109 110 111 >>
Time Temp. Humidity Pressure Rain* Wind** Luminosity Snow
1787841384 31.11° C 59% 1015.3 hPa 0 mm - 403 W/m² -
1787841079 31.11° C 59% 1015.4 hPa 0 mm - 386 W/m² -
1787840774 30.56° C 60% 1015.4 hPa 0 mm - 368 W/m² -
1787840469 30.56° C 60% 1015.5 hPa 0 mm - 350 W/m² -
1787840165 30.56° C 61% 1015.6 hPa 0 mm - 332 W/m² -
1787839864 30° C 62% 1015.5 hPa 0 mm - 314 W/m² -
1787839560 29.44° C 63% 1015.3 hPa 0 mm - 295 W/m² -
1787839259 29.44° C 64% 1015.5 hPa 0 mm - 277 W/m² -
1787838954 28.89° C 65% 1015.3 hPa 0 mm - 259 W/m² -
1787838653 28.89° C 65% 1015.3 hPa 0 mm - 243 W/m² -
1787838352 28.33° C 67% 1015.1 hPa 0 mm - 226 W/m² -
1787838052 28.33° C 67% 1015.2 hPa 0 mm - 209 W/m² -
1787837751 28.33° C 68% 1015.3 hPa 0 mm - 191 W/m² -
1787837446 27.78° C 69% 1015.2 hPa 0 mm - 175 W/m² -
1787837141 27.78° C 69% 1015.1 hPa 0 mm - 159 W/m² -
1787836840 27.78° C 69% 1015.1 hPa 0 mm - 144 W/m² -
1787836535 27.78° C 70% 1015.1 hPa 0 mm - 129 W/m² -
1787836230 27.22° C 70% 1015 hPa 0 mm - 112 W/m² -
1787835926 27.22° C 70% 1014.8 hPa 0 mm - 99 W/m² -
1787835626 26.67° C 71% 1014.8 hPa 0 mm - 87 W/m² -
1787835326 26.67° C 71% 1015 hPa 0 mm - 77 W/m² -
1787835021 26.67° C 72% 1014.7 hPa 0 mm - 66 W/m² -
1787834720 26.11° C 73% 1015 hPa 0 mm - 57 W/m² -
1787834415 26.11° C 73% 1014.7 hPa 0 mm - 48 W/m² -
1787834111 26.11° C 73% 1014.8 hPa 0 mm - 40 W/m² -

* Rain latest hour (hover to see other rain measurements)
** Current wind speed in m/s (hover to see current wind gust speed)